Theta_e
293 294 293 292 290 291 287 291 289 291 292 296 299 299 301 303 303 302 302 301 301 301 302 300 299 298 297 297 298 298 296 296 296 297 297 296 295 295 295 295 295 295 294 294
290 293 292 289 292 292 292 291 291 292 291 299 301 302 301 301 301 300 300 300 300 301 299 296 296 295 296 296 297 297 295 294 294 295 293 293 293 293 293 293 293 293 293 293
288 291 290 286 290 291 293 293 292 288 294 299 299 298 299 300 300 299 299 299 299 297 296 295 295 295 294 294 295 294 294 293 292 292 291 291 292 292 292 291 292 291 292 291
290 288 281 291 296 295 294 295 297 296 297 299 299 299 300 302 300 299 299 298 297 295 295 295 295 294 295 294 293 293 292 291 291 291 290 291 291 290 291 290 290 289 288 289
286 285 289 291 293 291 290 292 298 297 298 298 298 299 298 300 300 300 299 298 296 296 295 295 294 294 293 293 292 291 290 290 290 291 290 290 289 289 289 289 288 287 288 288
289 286 283 293 293 296 295 287 297 298 299 296 296 290 293 299 300 298 296 295 295 295 295 295 295 295 293 292 291 290 290 290 290 290 290 289 289 289 289 288 287 288 287 288
288 286 289 294 295 296 286 291 297 299 298 296 294 297 298 299 296 296 295 294 295 294 293 294 295 294 291 291 290 290 290 290 290 290 290 290 289 289 287 287 287 286 286 286
289 285 283 296 294 289 296 299 298 300 299 298 298 297 297 295 294 295 295 295 295 293 292 293 293 291 289 288 290 290 290 290 289 289 289 289 288 287 287 286 285 284 284 284
293 292 299 298 297 299 300 299 300 300 300 299 297 295 294 294 294 294 294 293 293 292 292 292 291 290 288 289 290 290 289 289 288 289 289 289 287 286 285 285 284 283 282 282
294 296 297 297 298 299 300 300 301 302 300 298 294 294 294 294 294 293 293 291 292 290 288 288 290 289 289 290 290 289 288 288 288 287 287 287 287 286 285 284 283 282 281 281
294 296 296 297 298 298 299 300 299 299 298 296 295 294 294 293 292 291 291 290 288 288 288 287 288 288 289 289 289 288 287 287 287 287 286 286 286 285 285 285 284 282 282 282
293 299 297 296 299 299 297 296 296 295 295 295 295 292 292 290 290 289 287 287 287 287 287 287 287 287 288 288 288 286 285 286 286 286 286 285 285 284 286 285 285 285 285 283
298 300 299 299 299 298 295 295 295 294 293 291 291 290 289 287 287 286 287 287 286 286 286 286 286 286 287 287 287 286 285 285 285 285 285 284 283 282 281 283 285 285 285 285
300 298 295 296 294 296 295 294 294 292 292 290 288 287 287 286 287 286 286 286 286 286 285 285 285 285 286 287 287 286 286 285 285 284 283 283 282 282 282 281 280 280 283 283
297 298 297 296 295 293 293 292 290 289 287 286 287 286 286 285 285 284 285 285 285 284 284 285 284 284 287 288 286 285 285 284 284 283 283 282 282 282 281 281 280 280 280 281
296 295 293 292 292 291 291 291 288 286 286 286 286 285 285 285 284 284 284 284 282 282 283 282 283 286 288 286 285 285 284 283 282 282 282 281 281 280 280 279 279 279 279 279
292 291 291 291 291 291 290 288 287 286 286 285 285 284 283 283 282 282 282 283 283 283 283 284 285 286 286 286 284 283 283 282 280 281 280 280 280 279 279 279 278 278 278 279
295 295 293 293 290 287 286 286 286 286 285 285 284 283 281 279 280 280 281 282 281 281 284 286 284 284 285 284 283 282 281 280 279 279 279 279 279 279 278 277 277 277 277 278
294 293 292 289 288 287 286 286 286 285 286 285 283 281 281 280 280 280 281 279 279 281 283 285 283 283 283 283 280 279 278 278 278 278 279 278 277 277 277 276 276 276 276 276
291 290 289 288 288 287 286 286 286 285 285 284 280 279 279 277 278 278 281 280 282 283 284 284 283 282 282 281 277 277 277 277 277 277 277 276 276 275 275 275 275 275 274 274
287 287 287 287 286 286 283 283 283 283 283 280 279 278 277 279 280 279 280 280 283 282 282 282 281 281 279 276 275 276 276 277 276 275 275 274 274 274 274 273 273 273 273 272
286 284 283 284 284 282 284 286 283 280 280 279 278 277 277 279 279 281 280 281 282 281 279 280 280 278 276 274 275 276 276 275 274 274 273 273 273 271 271 271 271 271 271 271
284 283 283 281 282 282 283 282 280 281 280 279 279 281 280 281 282 280 278 281 281 280 279 279 278 276 274 275 275 275 274 273 272 272 273 272 272 271 270 270 270 270 270 270
284 283 283 283 282 282 282 283 283 284 281 281 281 280 282 281 281 282 282 280 279 278 278 278 276 274 272 274 274 273 272 272 272 272 272 271 271 270 270 269 269 269 269 269
284 283 283 282 283 283 283 284 283 283 283 283 283 283 282 283 280 281 281 280 278 277 277 276 275 273 274 274 273 271 271 272 271 271 271 270 269 269 269 269 268 268 268 268
285 285 286 285 285 285 285 284 282 283 282 282 282 282 282 282 281 280 279 278 277 276 276 275 274 273 273 273 271 271 271 271 271 271 269 269 269 269 269 268 268 268 268 269
286 285 285 285 285 284 282 282 282 281 281 282 280 280 281 281 279 278 276 276 275 275 274 273 273 272 272 271 271 270 270 270 270 269 269 269 269 268 268 267 268 269 270 270
Wind_Speed
2 6 7 7 6 12 9 15 7 9 13 7 8 8 7 8 6 9 7 10 10 9 7 7 5 4 5 4 4 4 6 7 6 5 6 6 7 8 8 9 9 11 12 11
3 10 9 11 11 13 16 18 20 20 22 16 5 6 7 6 9 9 9 9 8 9 7 6 4 3 3 4 5 5 5 7 8 6 8 8 8 9 10 9 11 11 11 12
3 2 5 7 18 18 17 12 17 16 14 12 5 8 6 5 7 9 9 9 8 7 5 5 3 2 5 6 7 7 7 8 9 8 10 10 10 11 11 9 10 11 11 14
2 1 4 6 2 4 11 15 16 14 9 6 4 10 8 6 7 9 10 8 8 6 5 3 3 5 5 6 7 8 9 10 8 10 11 11 11 11 9 10 10 10 13 15
3 5 10 13 6 2 5 6 9 11 6 6 7 10 7 8 8 9 9 7 8 6 3 2 3 4 6 8 9 9 10 9 9 10 11 12 12 11 9 9 10 13 13 14
3 4 4 3 4 1 1 3 7 8 6 12 10 5 6 8 10 12 11 7 6 3 1 2 3 5 6 8 8 9 9 9 9 10 11 12 11 10 8 10 13 12 14 12
4 5 6 7 5 2 2 2 5 5 11 12 6 4 12 13 12 10 8 7 4 2 3 5 6 7 8 9 9 9 10 9 10 11 12 11 11 8 10 10 12 12 12 11
5 2 8 7 4 3 4 3 3 6 10 13 13 11 11 11 9 8 7 7 3 2 5 6 7 8 10 10 10 9 10 10 10 11 10 10 10 9 10 11 10 11 12 11
8 4 4 3 8 4 2 5 4 8 14 13 12 11 11 9 7 5 4 3 4 6 7 7 9 9 10 10 11 11 11 11 11 11 11 10 11 11 10 9 9 9 10 10
2 6 6 7 4 3 6 7 6 11 12 12 12 10 9 8 6 3 1 4 5 8 10 9 9 11 11 12 12 12 12 12 10 11 9 10 9 9 8 9 8 9 10 10
6 4 7 4 6 5 11 10 11 11 11 11 11 8 7 7 5 3 4 7 8 8 9 11 11 12 12 14 13 13 13 13 12 9 8 10 9 8 9 11 7 8 10 10
3 6 6 11 9 11 11 11 10 11 11 10 11 9 7 6 4 6 7 7 8 10 11 12 13 13 13 13 15 15 14 12 10 8 9 8 8 10 12 10 12 12 20 13
3 7 11 12 12 13 13 11 11 11 12 12 11 8 7 4 5 5 7 9 10 11 12 13 13 13 13 14 13 13 12 12 9 9 8 9 10 10 11 12 16 15 17 17
11 13 11 13 11 12 13 14 13 12 11 10 8 7 5 5 6 7 9 10 11 12 12 13 13 13 14 14 12 13 13 11 9 8 9 10 11 12 11 11 13 11 11 14
11 4 12 15 14 14 14 13 12 11 9 8 7 6 7 8 8 10 10 11 12 12 12 12 12 14 13 11 12 14 11 9 9 10 10 12 12 12 11 12 12 12 13 12
10 15 16 15 15 14 13 12 11 9 7 6 7 8 8 10 10 10 11 11 10 10 13 12 12 13 9 11 12 10 10 11 11 11 11 12 11 12 12 12 12 12 12 11
16 15 14 14 13 13 12 9 8 8 7 8 9 8 9 8 8 9 11 11 11 11 13 13 12 10 11 11 12 8 8 10 13 11 12 13 12 12 12 12 12 12 12 12
12 12 14 13 12 11 11 10 8 8 8 9 8 6 3 4 8 9 10 11 10 12 13 11 10 11 12 12 10 9 9 10 11 13 13 12 12 12 12 13 13 13 13 12
15 15 15 15 12 11 10 9 9 8 5 8 5 4 7 6 8 10 10 8 10 11 10 10 9 12 12 11 9 8 10 12 13 12 12 14 12 12 12 12 13 13 13 12
17 15 15 13 12 11 10 8 7 8 8 8 3 4 6 4 5 6 9 11 11 9 11 11 12 12 13 12 14 10 12 13 13 12 12 12 12 13 12 14 14 13 13 13
15 14 13 12 13 12 9 6 6 7 7 4 4 4 4 6 8 7 8 8 10 10 10 12 11 8 8 10 12 11 11 12 12 12 12 12 13 13 13 14 13 12 12 12
12 11 11 11 10 8 5 8 8 4 3 3 3 2 3 8 6 7 5 8 7 10 9 9 8 12 10 12 10 11 12 12 11 11 12 11 12 12 12 12 13 12 12 12
11 11 9 8 7 6 5 4 3 3 3 1 2 3 5 6 7 8 8 9 8 9 9 8 11 12 12 9 10 10 11 12 12 11 10 11 11 11 12 12 12 12 11 12
11 10 8 7 5 4 4 4 1 3 4 4 4 5 4 6 6 6 6 8 9 10 9 9 10 12 11 9 9 9 10 11 11 10 12 13 11 11 11 11 11 11 11 13
10 8 7 6 6 4 3 4 3 3 3 7 6 6 8 6 5 6 6 6 9 10 9 11 12 13 9 9 10 10 10 10 10 10 10 11 11 11 11 11 11 12 12 12
9 6 5 5 6 5 4 4 4 4 5 5 5 6 6 5 5 6 7 8 8 10 8 8 9 9 9 9 11 11 10 11 11 10 11 11 11 10 11 12 12 12 12 12
7 6 5 5 3 4 6 4 4 5 5 4 5 6 6 5 6 7 8 8 8 8 8 8 9 9 9 10 10 10 10 10 10 10 10 10 9 11 11 12 12 12 12 12
Wind_Direction
247 255 203 215 214 191 197 223 209 261 256 299 178 178 158 139 146 130 141 117 116 117 102 99 72 67 44 26 6 357 342 336 330 333 351 340 343 335 330 333 333 337 330 320
261 246 235 259 248 221 213 241 251 263 274 298 123 117 136 156 167 149 138 134 134 116 122 117 100 43 5 5 353 334 330 324 330 337 345 343 336 334 335 333 333 321 319 313
251 345 314 289 236 235 223 215 219 241 258 278 155 144 135 142 143 145 145 133 133 123 104 83 66 34 13 342 338 330 330 329 325 347 342 336 335 330 323 325 319 317 320 325
278 135 249 255 117 256 249 250 228 237 261 356 40 121 118 123 144 140 136 139 121 124 119 100 34 17 349 334 328 328 332 324 338 344 334 326 321 315 325 323 319 323 317 301
182 221 286 297 185 211 222 293 235 226 241 143 84 96 91 123 133 125 122 112 91 82 66 9 349 341 327 323 326 327 324 336 343 330 323 315 312 318 320 320 329 316 306 324
183 237 256 72 106 21 0 241 357 317 145 120 116 172 165 138 119 104 103 110 124 108 165 302 320 311 310 310 313 316 333 338 329 327 313 309 311 313 321 328 315 322 314 334
243 255 282 105 130 183 209 45 2 352 107 114 114 61 95 103 105 121 133 141 140 188 322 317 328 313 317 313 317 333 336 328 323 313 309 310 314 332 322 319 318 315 329 324
191 212 260 119 146 230 82 79 68 83 106 98 103 101 108 117 132 144 150 138 198 293 310 322 321 335 322 317 326 330 320 318 312 310 313 314 324 314 320 312 318 322 322 321
191 217 120 93 84 77 99 125 118 105 102 115 122 125 127 138 139 120 76 9 343 324 318 333 340 325 319 321 324 321 316 306 306 311 309 323 321 321 314 325 317 320 320 321
54 186 178 128 99 159 133 104 91 104 113 123 127 140 136 136 140 123 93 344 325 340 333 323 330 331 330 323 324 318 310 310 311 309 333 332 314 314 323 313 315 320 314 313
226 176 104 170 167 152 97 101 94 105 124 128 133 138 125 95 81 16 346 357 347 325 330 330 336 331 331 331 327 326 327 324 317 326 323 310 315 319 310 299 302 302 307 301
230 192 188 152 128 118 121 119 113 110 111 109 98 87 85 79 38 19 357 334 339 338 334 330 330 332 330 339 347 336 323 313 319 328 321 319 310 302 286 278 277 290 297 282
139 116 107 116 120 130 119 118 117 103 98 98 87 85 65 45 43 337 350 345 342 332 330 340 333 330 341 345 321 304 317 327 331 324 322 316 309 306 314 314 308 295 291 298
98 110 119 137 125 117 115 108 104 102 95 90 87 76 54 23 16 3 358 344 337 348 343 336 335 340 329 302 316 332 331 337 334 331 325 315 311 313 310 309 310 314 310 310
124 126 120 113 118 120 124 123 127 118 107 99 83 61 39 18 8 359 350 352 353 343 337 335 337 310 303 343 338 334 333 330 335 324 319 313 307 307 306 310 312 311 312 308
125 118 130 138 137 138 141 132 120 117 104 91 71 48 28 22 4 355 353 353 350 336 331 326 305 305 346 340 337 328 328 329 330 321 313 309 310 311 313 312 307 306 306 319
139 149 149 142 140 141 126 120 116 117 100 77 63 34 32 15 357 353 348 351 340 334 313 306 308 355 346 337 335 332 328 329 321 314 313 308 310 310 310 308 311 317 312 321
155 142 136 132 121 115 113 111 115 97 80 73 62 45 30 35 349 351 348 336 336 312 298 324 18 346 330 326 360 330 330 326 315 306 306 309 316 316 317 318 315 321 313 319
129 126 119 120 122 122 120 110 92 95 107 101 75 26 25 3 346 337 331 322 304 306 344 347 352 328 333 4 1 336 324 316 309 308 314 320 321 319 320 323 316 320 327 327
120 119 115 116 113 108 103 93 113 80 65 69 36 51 10 344 336 315 308 298 308 345 349 353 341 341 340 356 359 330 319 313 312 319 323 325 322 323 319 323 330 327 323 322
117 120 114 104 87 75 79 106 80 81 65 69 37 19 341 317 309 283 303 325 353 15 358 341 347 354 347 0 334 317 315 320 324 327 326 323 323 326 334 327 322 326 326 323
94 85 80 90 92 88 59 68 88 97 89 49 31 2 314 314 324 310 321 357 356 18 346 339 343 356 353 341 321 321 323 327 329 328 323 326 333 326 323 328 326 323 321 322
101 103 104 100 102 103 98 100 102 92 67 342 303 302 314 313 325 336 339 6 351 358 337 332 348 351 337 327 321 322 328 333 325 320 331 329 324 330 327 324 325 321 324 323
119 114 110 107 115 118 116 120 22 102 188 251 241 225 311 335 336 347 344 344 349 345 330 338 346 342 341 324 327 332 333 321 324 336 326 331 331 326 326 325 324 324 321 318
117 121 121 141 150 162 126 112 204 211 346 6 360 2 0 345 343 337 343 340 348 342 340 338 341 345 329 333 334 334 324 330 335 329 333 334 329 329 324 324 323 322 318 314
143 144 135 69 53 55 56 40 19 13 7 339 343 8 336 330 347 353 348 352 346 343 335 340 343 334 333 336 334 331 335 334 330 337 339 328 323 322 325 327 323 318 314 311
76 86 109 117 123 77 58 35 2 358 342 352 343 329 321 359 2 352 358 350 340 337 341 344 336 336 341 339 336 337 333 325 339 339 326 321 334 333 330 324 319 317 319 321